{"data":{"norad_id":67079,"epoch":"2026-05-25T03:31:28.684128Z","epoch_age_seconds":56131,"freshness":"FRESH","line1":"1 67079U 25298E   26145.14685977  .00002494  00000+0  21667-3 0  9993","line2":"2 67079  70.0015 181.5401 0003730 268.1774  91.8958 14.98336099 24673","mean_motion":14.98336099,"eccentricity":0.000373,"inclination_deg":70.0015,"raan_deg":181.5401,"arg_perigee_deg":268.1774,"mean_anomaly_deg":91.8958,"bstar":0.00021667,"rev_number":2467,"period_min":96.106607920684,"perigee_km":569.44461544068,"apogee_km":574.62944526732,"semimajor_km":6950.174030354,"source":"CELESTRAK","updated_at":"2026-05-25T13:38:21.443855Z"}}